CT2IRK-11 Weather Reports


time (UTC)temp
F
wind
direction
speed
knots
gust
knots
rain 1hr
in
rain 24hr
in
rain mn
in
humidity
%
barometer
mb
20260507065005 55 211 0.0 0.9 0.00 0.01 0.00 84 1003.3
20260507064005 54 195 0.0 2.6 0.00 0.01 0.00 87 1003.2
20260507063005 52 190 0.9 2.6 0.00 0.01 0.00 90 1003.2
20260507062005 51 187 0.0 0.9 0.00 0.01 0.00 92 1002.9
20260507060004 49 190 0.0 0.0 0.00 0.01 0.00 98 1002.7
20260507055005 50 192 0.0 0.0 0.00 0.01 0.00 99 1002.6
20260507054004 50 180 0.0 0.0 0.00 0.01 0.00 96 1002.5
20260507053005 50 112 0.0 0.0 0.00 0.01 0.00 96 1002.7
20260507052005 51 158 0.0 0.0 0.00 0.01 0.00 97 1002.7
20260507051006 50 112 0.0 0.0 0.00 0.01 0.00 98 1002.7
20260507050006 51 113 0.0 0.0 0.00 0.01 0.00 98 1002.9
20260507045006 51 99 0.0 0.0 0.00 0.01 0.00 96 1002.9
20260507044006 51 137 0.0 0.0 0.00 0.01 0.00 95 1003.0
20260507042006 51 202 0.0 0.0 0.00 0.01 0.00 95 1003.2
20260507041005 51 119 0.0 0.0 0.00 0.01 0.00 95 1003.3
20260507035005 51 123 0.0 0.0 0.00 0.01 0.00 94 1003.4
20260507034005 52 124 0.0 0.0 0.00 0.01 0.00 93 1003.4
20260507033006 52 170 0.0 0.0 0.00 0.01 0.00 93 1003.4
20260507032005 52 315 0.0 0.0 0.00 0.01 0.00 93 1003.4
20260507031006 53 123 0.0 0.0 0.00 0.01 0.00 92 1003.4
20260507025005 53 178 0.0 0.0 0.00 0.01 0.00 92 1003.5
20260507024006 52 180 0.0 0.0 0.00 0.01 0.00 92 1003.5
20260507023007 53 202 0.0 0.0 0.00 0.01 0.00 92 1003.6
20260507022006 54 202 0.0 0.0 0.00 0.01 0.00 93 1003.6
20260507021005 54 45 0.0 0.0 0.00 0.01 0.00 93 1003.6
20260507020005 55 12 0.0 0.0 0.00 0.01 0.00 90 1003.7
20260507015006 55 304 0.0 0.9 0.00 0.01 0.00 90 1003.8
20260507013005 56 56 0.9 5.2 0.00 0.01 0.00 88 1003.8
20260507012006 56 56 0.9 1.7 0.00 0.01 0.00 88 1003.9
20260507011005 56 66 0.0 0.9 0.00 0.01 0.00 88 1003.8
20260507005005 56 57 0.0 0.9 0.00 0.01 0.00 88 1004.2
20260507004005 56 35 0.0 0.0 0.00 0.01 0.00 88 1004.2
20260507003006 56 22 0.0 0.0 0.00 0.01 0.00 88 1004.2
20260507002005 56 56 0.0 0.0 0.00 0.01 0.00 87 1004.4
20260507001006 56 352 0.0 0.9 0.00 0.01 0.00 86 1004.4
20260507000005 56 28 0.0 5.2 0.00 0.01 0.00 85 1004.3
20260506235005 57 37 1.7 6.1 0.00 0.01 0.00 85 1004.3
20260506234005 57 31 3.5 7.0 0.00 0.01 0.00 84 1004.3
20260506233005 57 22 2.6 10.4 0.00 0.01 0.00 84 1004.3
20260506232005 57 22 6.1 7.8 0.00 0.01 0.00 84 1004.3
20260506231005 57 52 0.9 7.0 0.00 0.01 0.00 84 1004.4
20260506230005 57 44 1.7 6.1 0.00 0.01 0.00 84 1004.5
20260506225005 58 22 4.3 7.8 0.00 0.01 0.01 83 1004.5
20260506224006 58 354 4.3 7.8 0.00 0.01 0.01 82 1004.5
20260506223006 58 22 7.0 13.0 0.00 0.01 0.01 81 1004.6
20260506222005 58 60 6.1 8.7 0.00 0.01 0.01 81 1004.7
20260506221005 58 336 1.7 10.4 0.00 0.01 0.01 81 1004.7
20260506220005 58 2 4.3 8.7 0.00 0.01 0.01 80 1004.9
20260506215006 58 6 5.2 8.7 0.00 0.01 0.01 80 1004.8
20260506214006 58 30 6.1 8.7 0.00 0.01 0.01 79 1004.8
20260506212005 59 8 6.1 8.7 0.00 0.01 0.01 79 1004.7
20260506211006 59 21 4.3 7.8 0.00 0.01 0.01 78 1004.7
20260506210005 59 25 6.1 12.2 0.00 0.01 0.01 77 1004.6
20260506205005 59 351 5.2 7.8 0.01 0.01 0.01 76 1004.5
20260506203005 59 359 0.0 5.2 0.01 0.01 0.01 73 1004.5
20260506202005 60 81 5.2 7.0 0.01 0.01 0.01 72 1004.3
20260506201006 61 359 5.2 10.4 0.01 0.01 0.01 69 1004.3
20260506200005 61 6 8.7 12.2 0.01 0.01 0.01 66 1004.0
20260506195005 61 5 9.6 12.2 0.00 0.00 0.00 65 1004.1
20260506194006 62 335 7.8 11.3 0.00 0.00 0.00 66 1004.1
20260506193005 62 349 7.8 13.9 0.00 0.00 0.00 64 1004.1
20260506191005 64 28 7.8 10.4 0.00 0.00 0.00 59 1003.7
20260506190006 65 100 5.2 8.7 0.00 0.00 0.00 59 1003.5
20260506185005 66 45 5.2 7.8 0.00 0.00 0.00 56 1003.5
20260506183006 67 292 7.0 11.3 0.00 0.00 0.00 52 1003.5
20260506182005 67 303 9.6 13.0 0.00 0.00 0.00 50 1003.4
20260506180006 68 9 9.6 12.2 0.00 0.00 0.00 48 1003.6
20260506175005 68 298 8.7 13.9 0.00 0.00 0.00 46 1003.7
20260506174006 69 324 8.7 13.0 0.00 0.00 0.00 45 1003.7
20260506173005 70 352 8.7 12.2 0.00 0.00 0.00 46 1003.7
20260506172005 70 302 8.7 12.2 0.00 0.00 0.00 45 1003.8
20260506171005 71 10 7.8 12.2 0.00 0.00 0.00 44 1003.6
20260506170005 71 30 10.4 12.2 0.00 0.00 0.00 44 1003.6
20260506165005 72 315 7.8 13.9 0.00 0.00 0.00 43 1003.6
20260506164005 72 353 10.4 12.2 0.00 0.00 0.00 45 1003.6
20260506163005 73 14 6.1 13.0 0.00 0.00 0.00 43 1003.7
20260506162006 74 270 7.0 13.9 0.00 0.00 0.00 43 1003.8
20260506161008 73 327 8.7 13.9 0.00 0.00 0.00 44 1003.7
20260506160005 73 2 8.7 15.6 0.00 0.00 0.00 45 1003.7
20260506155005 74 28 8.7 13.9 0.00 0.00 0.00 43 1003.6
20260506153005 73 304 7.8 14.8 0.00 0.00 0.00 44 1003.8
20260506152005 75 302 7.0 11.3 0.00 0.00 0.00 41 1004.1
20260506151005 74 307 5.2 13.9 0.00 0.00 0.00 41 1004.1
20260506150005 74 13 7.8 10.4 0.00 0.00 0.00 42 1004.3
20260506145008 74 36 6.1 8.7 0.00 0.00 0.00 39 1004.3
20260506144005 74 294 9.6 12.2 0.00 0.00 0.00 40 1004.3
20260506143005 74 321 7.8 11.3 0.00 0.00 0.00 40 1004.5
20260506142006 72 300 6.1 13.9 0.00 0.00 0.00 41 1004.7
20260506141005 75 283 7.0 11.3 0.00 0.00 0.00 39 1004.9
20260506140005 73 321 7.0 10.4 0.00 0.00 0.00 40 1004.9
20260506135005 74 347 4.3 8.7 0.00 0.00 0.00 41 1005.0
20260506134005 78 338 4.3 6.1 0.00 0.00 0.00 33 1005.1
20260506132005 76 344 5.2 8.7 0.00 0.00 0.00 35 1005.5
20260506131005 75 357 7.8 12.2 0.00 0.00 0.00 37 1005.6
20260506130005 72 34 4.3 7.8 0.00 0.00 0.00 41 1005.6
20260506124005 74 304 6.1 8.7 0.00 0.00 0.00 37 1005.8
20260506123005 74 22 3.5 8.7 0.00 0.00 0.00 38 1006.0
20260506121005 70 41 6.1 11.3 0.00 0.00 0.00 44 1006.1
20260506114005 70 349 6.1 11.3 0.00 0.00 0.00 45 1006.6
20260506113004 73 357 4.3 8.7 0.00 0.00 0.00 42 1006.6
20260506112005 73 47 6.1 11.3 0.00 0.00 0.00 42 1006.6
20260506111005 72 356 6.1 8.7 0.00 0.00 0.00 42 1006.6
20260506110004 71 358 7.8 8.7 0.00 0.00 0.00 45 1006.7
20260506105004 72 34 5.2 13.0 0.00 0.00 0.00 46 1006.7
20260506104005 71 51 5.2 8.7 0.00 0.00 0.00 47 1006.7
20260506103004 71 55 5.2 7.8 0.00 0.00 0.00 48 1006.8
20260506102005 70 0 5.2 8.7 0.00 0.00 0.00 48 1007.0
20260506101004 70 1 5.2 10.4 0.00 0.00 0.00 50 1007.1
20260506095005 68 57 7.8 10.4 0.00 0.00 0.00 52 1007.0
20260506094005 68 22 6.1 7.8 0.00 0.00 0.00 54 1007.0
20260506093004 68 23 6.1 8.7 0.00 0.00 0.00 55 1007.2
20260506092005 68 35 3.5 5.2 0.00 0.00 0.00 60 1007.3
20260506091005 67 351 0.0 1.7 0.00 0.00 0.00 63 1007.3
20260506090004 68 32 0.0 4.3 0.00 0.00 0.00 61 1007.4
20260506085004 65 37 1.7 6.1 0.00 0.00 0.00 64 1007.6
20260506084005 65 356 0.0 5.2 0.00 0.00 0.00 66 1007.7
20260506083005 64 58 0.0 5.2 0.00 0.00 0.00 68 1007.6
20260506073005 62 9 0.0 0.0 0.00 0.00 0.00 71 1007.8
20260506072005 63 8 0.0 0.0 0.00 0.00 0.00 68 1007.7
20260506071005 63 298 0.0 0.0 0.00 0.00 0.00 69 1007.8